| time (UTC) | temp F | wind direction | speed MPH | gust MPH | rain 1hr in | rain 24hr in | rain mn in | humidity % | barometer mb |
| 20260905071511 | 65 | 67 | 2.0 | 3.0 | 0.00 | 0.00 | 0.00 | 99 | 1017.4 |
| 20260905071011 | 65 | 344 | 0.0 | 1.0 | 0.00 | 0.00 | 0.00 | 99 | 1017.6 |
| 20260905070506 | 65 | 330 | 0.0 | 0.0 | 0.00 | 0.00 | 0.00 | 99 | 1017.9 |
| 20260905070002 | 65 | 48 | 0.0 | 1.0 | 0.00 | 0.00 | 0.00 | 99 | 1018.1 |
| 20260905065459 | 65 | 354 | 0.0 | 2.0 | 0.00 | 0.00 | 0.00 | 99 | 1018.2 |
| 20260905064955 | 65 | 69 | 5.0 | 6.0 | 0.00 | 0.00 | 0.00 | 99 | 1018.0 |
| 20260905064449 | 65 | 51 | 0.0 | 0.0 | 0.00 | 0.00 | 0.00 | 99 | 1018.2 |
| 20260905063944 | 65 | 53 | 0.0 | 0.0 | 0.00 | 0.00 | 0.00 | 99 | 1018.1 |
| 20260905063433 | 65 | 313 | 0.0 | 0.0 | 0.00 | 0.00 | 0.00 | 99 | 1018.6 |
| 20260905062930 | 65 | 281 | 0.0 | 0.0 | 0.00 | 0.00 | 0.00 | 99 | 1018.3 |
| 20260905062429 | 65 | 109 | 0.0 | 0.0 | 0.00 | 0.00 | 0.00 | 99 | 1018.5 |
| 20260905061925 | 65 | 46 | 0.0 | 0.0 | 0.00 | 0.00 | 0.00 | 99 | 1018.7 |
| 20260905061424 | 65 | 42 | 1.0 | 3.0 | 0.00 | 0.00 | 0.00 | 99 | 1018.7 |
| 20260905060923 | 65 | 322 | 0.0 | 0.0 | 0.00 | 0.00 | 0.00 | 99 | 1018.6 |
| 20260905060420 | 64 | 53 | 2.0 | 3.0 | 0.00 | 0.00 | 0.00 | 99 | 1018.9 |
| 20260905055919 | 65 | 92 | 0.0 | 0.0 | 0.00 | 0.00 | 0.00 | 99 | 1018.9 |
| 20260905055415 | 65 | 107 | 0.0 | 0.0 | 0.00 | 0.00 | 0.00 | 99 | 1018.8 |
| 20260905054913 | 65 | 87 | 0.0 | 0.0 | 0.00 | 0.00 | 0.00 | 99 | 1019.2 |
| 20260905054411 | 64 | 42 | 0.0 | 0.0 | 0.00 | 0.00 | 0.00 | 99 | 1019.3 |
| 20260905053910 | 64 | 42 | 0.0 | 0.0 | 0.00 | 0.00 | 0.00 | 99 | 1019.3 |
| 20260905053405 | 64 | 72 | 0.0 | 0.0 | 0.00 | 0.00 | 0.00 | 99 | 1019.4 |
| 20260905052900 | 64 | 275 | 0.0 | 0.0 | 0.00 | 0.00 | 0.00 | 99 | 1019.6 |
| 20260905052359 | 64 | 335 | 0.0 | 0.0 | 0.00 | 0.00 | 0.00 | 99 | 1019.5 |
| 20260905051854 | 64 | 332 | 0.0 | 0.0 | 0.00 | 0.00 | 0.00 | 99 | 1019.6 |
| 20260905051350 | 64 | 58 | 0.0 | 0.0 | 0.00 | 0.00 | 0.00 | 99 | 1019.5 |
| 20260905050847 | 64 | 324 | 0.0 | 0.0 | 0.00 | 0.00 | 0.00 | 99 | 1019.7 |
| 20260905050343 | 64 | 74 | 0.0 | 0.0 | 0.00 | 0.00 | 0.00 | 99 | 1019.5 |
| 20260905045843 | 64 | 239 | 0.0 | 0.0 | 0.00 | 0.00 | 0.00 | 99 | 1019.9 |
| 20260905045338 | 65 | 239 | 0.0 | 0.0 | 0.00 | 0.00 | 0.00 | 99 | 1019.8 |
| 20260905044833 | 64 | 86 | 0.0 | 0.0 | 0.00 | 0.00 | 0.00 | 99 | 1020.1 |
| 20260905044328 | 64 | 263 | 0.0 | 0.0 | 0.00 | 0.00 | 0.00 | 99 | 1020.0 |
| 20260905043827 | 64 | 125 | 0.0 | 0.0 | 0.00 | 0.00 | 0.00 | 99 | 1020.3 |
| 20260905043321 | 64 | 125 | 0.0 | 0.0 | 0.00 | 0.00 | 0.00 | 99 | 1020.1 |
| 20260905042816 | 64 | 125 | 0.0 | 0.0 | 0.00 | 0.00 | 0.00 | 99 | 1019.9 |
| 20260905042310 | 65 | 180 | 0.0 | 0.0 | 0.00 | 0.00 | 0.00 | 99 | 1020.3 |
| 20260905041806 | 65 | 227 | 0.0 | 0.0 | 0.00 | 0.00 | 0.00 | 99 | 1020.3 |
| 20260905041302 | 65 | 88 | 0.0 | 0.0 | 0.00 | 0.00 | 0.00 | 99 | 1020.3 |
| 20260905040756 | 65 | 93 | 0.0 | 0.0 | 0.00 | 0.00 | 0.00 | 99 | 1020.4 |
| 20260905040255 | 65 | 91 | 0.0 | 0.0 | 0.00 | 0.28 | 0.28 | 99 | 1020.1 |
| 20260905035750 | 65 | 116 | 0.0 | 0.0 | 0.00 | 0.28 | 0.28 | 99 | 1020.4 |
| 20260905035246 | 65 | 118 | 0.0 | 0.0 | 0.00 | 0.28 | 0.28 | 99 | 1020.5 |
| 20260905034743 | 65 | 45 | 0.0 | 0.0 | 0.00 | 0.28 | 0.28 | 99 | 1020.4 |
| 20260905034243 | 65 | 45 | 0.0 | 0.0 | 0.00 | 0.28 | 0.28 | 99 | 1020.3 |
| 20260905033741 | 65 | 53 | 0.0 | 0.0 | 0.00 | 0.28 | 0.28 | 99 | 1020.3 |
| 20260905033237 | 66 | 9 | 0.0 | 0.0 | 0.00 | 0.28 | 0.28 | 99 | 1020.3 |
| 20260905032736 | 65 | 93 | 0.0 | 0.0 | 0.00 | 0.28 | 0.28 | 99 | 1020.1 |
| 20260905032232 | 65 | 35 | 0.0 | 0.0 | 0.00 | 0.28 | 0.28 | 99 | 1020.0 |
| 20260905031727 | 65 | 94 | 0.0 | 0.0 | 0.00 | 0.28 | 0.28 | 99 | 1020.1 |
| 20260905031223 | 66 | 244 | 0.0 | 0.0 | 0.00 | 0.28 | 0.28 | 99 | 1019.9 |
| 20260905030718 | 66 | 338 | 0.0 | 0.0 | 0.00 | 0.28 | 0.28 | 99 | 1019.8 |
| 20260905030213 | 66 | 336 | 0.0 | 0.0 | 0.00 | 0.28 | 0.28 | 99 | 1020.0 |
| 20260905025707 | 66 | 50 | 0.0 | 2.0 | 0.00 | 0.28 | 0.28 | 99 | 1019.8 |
| 20260905025203 | 66 | 39 | 0.0 | 0.0 | 0.00 | 0.28 | 0.28 | 99 | 1019.8 |
| 20260905024658 | 66 | 37 | 0.0 | 0.0 | 0.00 | 0.28 | 0.28 | 99 | 1019.7 |
| 20260905024154 | 66 | 48 | 0.0 | 1.0 | 0.00 | 0.28 | 0.28 | 99 | 1020.0 |
| 20260905023649 | 66 | 54 | 0.0 | 1.0 | 0.00 | 0.28 | 0.28 | 99 | 1019.8 |
| 20260905023148 | 66 | 18 | 0.0 | 1.0 | 0.00 | 0.28 | 0.28 | 99 | 1019.7 |
| 20260905022647 | 66 | 133 | 0.0 | 0.0 | 0.00 | 0.28 | 0.28 | 99 | 1019.6 |
| 20260905022143 | 66 | 181 | 0.0 | 1.0 | 0.00 | 0.28 | 0.28 | 99 | 1019.4 |
| 20260905021642 | 66 | 270 | 1.0 | 2.0 | 0.00 | 0.28 | 0.28 | 99 | 1019.4 |
| 20260905021138 | 66 | 243 | 0.0 | 2.0 | 0.00 | 0.28 | 0.28 | 99 | 1019.3 |
| 20260905020633 | 66 | 225 | 0.0 | 0.0 | 0.00 | 0.28 | 0.28 | 99 | 1019.2 |
| 20260905020128 | 66 | 217 | 0.0 | 1.0 | 0.00 | 0.28 | 0.28 | 99 | 1019.2 |
| 20260905015626 | 66 | 192 | 1.0 | 3.0 | 0.00 | 0.28 | 0.28 | 99 | 1019.2 |
| 20260905015121 | 66 | 182 | 1.0 | 1.0 | 0.00 | 0.28 | 0.28 | 99 | 1019.3 |
| 20260905014614 | 65 | 152 | 0.0 | 0.0 | 0.00 | 0.28 | 0.28 | 99 | 1019.4 |
| 20260905014111 | 65 | 213 | 0.0 | 0.0 | 0.00 | 0.28 | 0.28 | 99 | 1019.2 |
| 20260905013607 | 65 | 228 | 0.0 | 0.0 | 0.00 | 0.28 | 0.28 | 99 | 1019.1 |
| 20260905013103 | 66 | 239 | 0.0 | 0.0 | 0.00 | 0.28 | 0.28 | 99 | 1019.0 |
| 20260905012601 | 66 | 223 | 0.0 | 0.0 | 0.00 | 0.28 | 0.28 | 99 | 1019.1 |
| 20260905012059 | 66 | 38 | 0.0 | 0.0 | 0.00 | 0.28 | 0.28 | 99 | 1019.0 |
| 20260905011555 | 66 | 38 | 0.0 | 0.0 | 0.00 | 0.28 | 0.28 | 99 | 1019.0 |
| 20260905011050 | 66 | 38 | 0.0 | 0.0 | 0.00 | 0.28 | 0.28 | 99 | 1019.1 |
| 20260905010544 | 66 | 62 | 0.0 | 0.0 | 0.00 | 0.28 | 0.28 | 99 | 1019.1 |
| 20260905010041 | 66 | 49 | 0.0 | 0.0 | 0.00 | 0.28 | 0.28 | 99 | 1018.9 |
| 20260905005536 | 66 | 304 | 0.0 | 0.0 | 0.00 | 0.28 | 0.28 | 99 | 1018.9 |
| 20260905005032 | 66 | 273 | 0.0 | 0.0 | 0.00 | 0.28 | 0.28 | 99 | 1019.2 |
| 20260905004532 | 66 | 234 | 0.0 | 0.0 | 0.00 | 0.28 | 0.28 | 99 | 1019.0 |
| 20260905004027 | 66 | 176 | 0.0 | 0.0 | 0.00 | 0.28 | 0.28 | 99 | 1019.0 |
| 20260905003523 | 66 | 143 | 0.0 | 0.0 | 0.00 | 0.28 | 0.28 | 99 | 1019.2 |
| 20260905003018 | 67 | 98 | 0.0 | 0.0 | 0.00 | 0.28 | 0.28 | 99 | 1019.2 |
| 20260905002513 | 67 | 85 | 0.0 | 0.0 | 0.00 | 0.28 | 0.28 | 99 | 1019.1 |
| 20260905002008 | 67 | 155 | 0.0 | 0.0 | 0.00 | 0.28 | 0.28 | 99 | 1019.1 |
| 20260905001503 | 67 | 153 | 0.0 | 0.0 | 0.00 | 0.28 | 0.28 | 99 | 1019.2 |
| 20260905000957 | 67 | 155 | 0.0 | 0.0 | 0.00 | 0.28 | 0.28 | 99 | 1019.0 |
| 20260905000454 | 67 | 155 | 0.0 | 0.0 | 0.00 | 0.28 | 0.28 | 99 | 1019.1 |
| 20260904235948 | 67 | 155 | 0.0 | 0.0 | 0.00 | 0.28 | 0.28 | 99 | 1019.0 |
| 20260904235443 | 67 | 155 | 0.0 | 0.0 | 0.00 | 0.28 | 0.28 | 99 | 1019.0 |
| 20260904234937 | 67 | 137 | 0.0 | 0.0 | 0.00 | 0.28 | 0.28 | 99 | 1019.2 |
| 20260904234437 | 67 | 206 | 0.0 | 0.0 | 0.00 | 0.28 | 0.28 | 99 | 1019.0 |
| 20260904233934 | 67 | 223 | 0.0 | 0.0 | 0.00 | 0.28 | 0.28 | 99 | 1018.9 |
| 20260904233429 | 68 | 108 | 0.0 | 1.0 | 0.00 | 0.28 | 0.28 | 99 | 1018.9 |
| 20260904232925 | 68 | 46 | 0.0 | 0.0 | 0.00 | 0.28 | 0.28 | 99 | 1019.1 |
| 20260904232421 | 68 | 348 | 0.0 | 0.0 | 0.00 | 0.28 | 0.28 | 99 | 1019.1 |
| 20260904231918 | 68 | 35 | 0.0 | 1.0 | 0.00 | 0.28 | 0.28 | 99 | 1019.1 |
| 20260904231413 | 68 | 55 | 3.0 | 3.0 | 0.00 | 0.28 | 0.28 | 99 | 1019.1 |
| 20260904230908 | 68 | 58 | 0.0 | 0.0 | 0.00 | 0.28 | 0.28 | 99 | 1019.1 |
| 20260904230406 | 68 | 40 | 0.0 | 0.0 | 0.00 | 0.28 | 0.28 | 99 | 1019.0 |
| 20260904225901 | 68 | 8 | 0.0 | 0.0 | 0.00 | 0.28 | 0.28 | 99 | 1018.8 |
| 20260904225359 | 68 | 101 | 0.0 | 0.0 | 0.00 | 0.28 | 0.28 | 98 | 1018.7 |
| 20260904224859 | 68 | 83 | 1.0 | 2.0 | 0.00 | 0.28 | 0.28 | 98 | 1018.9 |
| 20260904224355 | 68 | 56 | 0.0 | 0.0 | 0.00 | 0.28 | 0.28 | 98 | 1018.9 |
| 20260904223849 | 68 | 104 | 0.0 | 0.0 | 0.00 | 0.28 | 0.28 | 98 | 1018.7 |
| 20260904223348 | 68 | 102 | 0.0 | 0.0 | 0.00 | 0.28 | 0.28 | 98 | 1018.8 |
| 20260904222844 | 68 | 215 | 1.0 | 1.0 | 0.00 | 0.28 | 0.28 | 99 | 1018.6 |
| 20260904222339 | 68 | 227 | 2.0 | 3.0 | 0.00 | 0.28 | 0.28 | 99 | 1018.7 |
| 20260904221839 | 68 | 221 | 2.0 | 3.0 | 0.00 | 0.28 | 0.28 | 98 | 1018.8 |
| 20260904221334 | 68 | 238 | 0.0 | 3.0 | 0.00 | 0.28 | 0.28 | 98 | 1018.9 |
| 20260904220829 | 68 | 174 | 2.0 | 2.0 | 0.00 | 0.28 | 0.28 | 97 | 1019.0 |
| 20260904220328 | 67 | 196 | 0.0 | 2.0 | 0.00 | 0.28 | 0.28 | 97 | 1019.0 |
| 20260904215824 | 67 | 20 | 0.0 | 0.0 | 0.00 | 0.28 | 0.28 | 98 | 1019.3 |
| 20260904215319 | 67 | 88 | 0.0 | 1.0 | 0.00 | 0.28 | 0.28 | 97 | 1019.8 |
| 20260904214815 | 68 | 62 | 2.0 | 3.0 | 0.00 | 0.28 | 0.28 | 97 | 1019.8 |
| 20260904214310 | 68 | 140 | 0.0 | 0.0 | 0.00 | 0.28 | 0.28 | 96 | 1019.7 |
| 20260904213808 | 68 | 238 | 0.0 | 0.0 | 0.00 | 0.28 | 0.28 | 96 | 1019.6 |
| 20260904213304 | 68 | 293 | 3.0 | 4.0 | 0.00 | 0.28 | 0.28 | 94 | 1019.7 |
| 20260904212759 | 68 | 257 | 2.0 | 2.0 | 0.12 | 0.28 | 0.28 | 94 | 1019.0 |
| 20260904212254 | 68 | 128 | 2.0 | 3.0 | 0.19 | 0.28 | 0.28 | 93 | 1019.7 |
| 20260904211749 | 68 | 222 | 2.0 | 3.0 | 0.07 | 0.26 | 0.26 | 94 | 1019.5 |
| 20260904211244 | 68 | 236 | 0.0 | 2.0 | 0.05 | 0.25 | 0.25 | 93 | 1019.8 |
| 20260904210739 | 70 | 243 | 3.0 | 4.0 | 0.05 | 0.25 | 0.25 | 91 | 1020.1 |
| 20260904210233 | 69 | 73 | 5.0 | 7.0 | 0.00 | 0.24 | 0.24 | 87 | 1019.8 |
| 20260904205730 | 68 | 117 | 2.0 | 3.0 | 0.00 | 0.24 | 0.24 | 91 | 1020.7 |
| 20260904205225 | 69 | 95 | 3.0 | 4.0 | 0.00 | 0.24 | 0.24 | 91 | 1020.6 |
| 20260904204722 | 69 | 102 | 4.0 | 7.0 | 0.00 | 0.24 | 0.24 | 85 | 1021.1 |
| 20260904204217 | 70 | 125 | 2.0 | 6.0 | 0.07 | 0.24 | 0.24 | 87 | 1021.5 |
| 20260904203713 | 72 | 88 | 5.0 | 7.0 | 0.12 | 0.23 | 0.23 | 85 | 1021.4 |
| 20260904203210 | 72 | 99 | 4.0 | 11.0 | 0.12 | 0.23 | 0.23 | 81 | 1021.4 |
| 20260904202705 | 75 | 189 | 6.0 | 30.0 | 0.00 | 0.21 | 0.21 | 79 | 1021.5 |
| 20260904202201 | 76 | 294 | 7.0 | 16.0 | 0.00 | 0.21 | 0.21 | 76 | 1022.2 |
| 20260904201656 | 78 | 221 | 2.0 | 8.0 | 0.00 | 0.21 | 0.21 | 77 | 1021.5 |
| 20260904201151 | 79 | 243 | 4.0 | 11.0 | 0.00 | 0.21 | 0.21 | 75 | 1021.2 |
| 20260904200650 | 79 | 338 | 2.0 | 2.0 | 0.00 | 0.21 | 0.21 | 81 | 1020.6 |
| 20260904200146 | 80 | 14 | 3.0 | 4.0 | 0.00 | 0.21 | 0.21 | 80 | 1019.9 |
| 20260904195644 | 81 | 25 | 2.0 | 6.0 | 0.00 | 0.21 | 0.21 | 76 | 1019.7 |
| 20260904195143 | 82 | 25 | 4.0 | 4.0 | 0.00 | 0.21 | 0.21 | 74 | 1019.6 |
| 20260904194638 | 83 | 18 | 2.0 | 4.0 | 0.00 | 0.21 | 0.21 | 72 | 1019.5 |
| 20260904194132 | 83 | 43 | 2.0 | 4.0 | 0.00 | 0.21 | 0.21 | 71 | 1019.3 |
| 20260904193627 | 84 | 145 | 1.0 | 3.0 | 0.00 | 0.21 | 0.21 | 70 | 1019.0 |
| 20260904193124 | 85 | 2 | 2.0 | 3.0 | 0.00 | 0.21 | 0.21 | 69 | 1019.1 |
| 20260904192623 | 87 | 60 | 0.0 | 0.0 | 0.00 | 0.21 | 0.21 | 62 | 1018.9 |
| 20260904192119 | 88 | 305 | 2.0 | 2.0 | 0.00 | 0.21 | 0.21 | 59 | 1018.9 |
| 20260904191616 | 88 | 209 | 0.0 | 0.0 | 0.00 | 0.21 | 0.21 | 64 | 1019.0 |
| 20260904191112 | 87 | 284 | 1.0 | 2.0 | 0.00 | 0.21 | 0.21 | 62 | 1018.9 |
| 20260904190607 | 87 | 178 | 1.0 | 7.0 | 0.00 | 0.21 | 0.21 | 59 | 1018.8 |
| 20260904185600 | 86 | 297 | 1.0 | 1.0 | 0.00 | 0.21 | 0.21 | 60 | 1018.5 |
| 20260904185054 | 89 | 101 | 2.0 | 2.0 | 0.00 | 0.21 | 0.21 | 57 | 1018.5 |
| 20260904184548 | 87 | 35 | 0.0 | 1.0 | 0.00 | 0.21 | 0.21 | 58 | 1018.6 |
| 20260904184043 | 87 | 287 | 2.0 | 2.0 | 0.00 | 0.21 | 0.21 | 59 | 1018.8 |
| 20260904183544 | 87 | 192 | 1.0 | 1.0 | 0.00 | 0.21 | 0.21 | 64 | 1019.1 |
| 20260904183039 | 87 | 142 | 1.0 | 4.0 | 0.00 | 0.21 | 0.21 | 65 | 1019.0 |
| 20260904182535 | 89 | 126 | 0.0 | 1.0 | 0.00 | 0.21 | 0.21 | 66 | 1019.3 |
| 20260904182035 | 88 | 37 | 1.0 | 2.0 | 0.00 | 0.21 | 0.21 | 63 | 1019.4 |
| 20260904181530 | 87 | 1 | 0.0 | 0.0 | 0.00 | 0.21 | 0.21 | 63 | 1019.5 |
| 20260904181024 | 86 | 333 | 2.0 | 4.0 | 0.00 | 0.21 | 0.21 | 61 | 1019.7 |
| 20260904180519 | 87 | 149 | 3.0 | 3.0 | 0.00 | 0.21 | 0.21 | 61 | 1019.5 |
| 20260904180014 | 89 | 303 | 1.0 | 4.0 | 0.00 | 0.21 | 0.21 | 59 | 1019.5 |
| 20260904175509 | 88 | 267 | 0.0 | 6.0 | 0.00 | 0.21 | 0.21 | 60 | 1019.7 |
| 20260904175007 | 89 | 226 | 3.0 | 4.0 | 0.00 | 0.21 | 0.21 | 62 | 1019.7 |
| 20260904174502 | 87 | 22 | 0.0 | 1.0 | 0.00 | 0.21 | 0.21 | 65 | 1019.7 |
| 20260904173959 | 88 | 22 | 0.0 | 1.0 | 0.00 | 0.21 | 0.21 | 63 | 1019.7 |
| 20260904173453 | 91 | 21 | 1.0 | 1.0 | 0.00 | 0.21 | 0.21 | 59 | 1019.7 |
| 20260904172949 | 90 | 89 | 0.0 | 3.0 | 0.00 | 0.21 | 0.21 | 56 | 1019.8 |
| 20260904172444 | 90 | 269 | 1.0 | 1.0 | 0.00 | 0.21 | 0.21 | 64 | 1019.8 |
| 20260904171938 | 89 | 278 | 2.0 | 3.0 | 0.00 | 0.21 | 0.21 | 60 | 1019.8 |
| 20260904171434 | 89 | 259 | 0.0 | 4.0 | 0.00 | 0.21 | 0.21 | 64 | 1020.0 |
| 20260904170930 | 89 | 174 | 3.0 | 7.0 | 0.00 | 0.21 | 0.21 | 59 | 1019.9 |
| 20260904170425 | 89 | 256 | 1.0 | 2.0 | 0.00 | 0.21 | 0.21 | 63 | 1019.9 |
| 20260904165920 | 87 | 300 | 4.0 | 13.0 | 0.00 | 0.21 | 0.21 | 62 | 1020.1 |
| 20260904165419 | 86 | 272 | 2.0 | 3.0 | 0.00 | 0.21 | 0.21 | 64 | 1020.1 |
| 20260904164919 | 87 | 269 | 1.0 | 3.0 | 0.00 | 0.21 | 0.21 | 65 | 1020.1 |
| 20260904164419 | 86 | 273 | 4.0 | 7.0 | 0.00 | 0.21 | 0.21 | 65 | 1020.5 |
| 20260904163915 | 87 | 16 | 0.0 | 4.0 | 0.00 | 0.21 | 0.21 | 64 | 1020.1 |
| 20260904163414 | 87 | 4 | 0.0 | 3.0 | 0.00 | 0.21 | 0.21 | 65 | 1020.5 |
| 20260904162914 | 88 | 331 | 0.0 | 4.0 | 0.00 | 0.21 | 0.21 | 70 | 1020.7 |
| 20260904162410 | 87 | 92 | 3.0 | 3.0 | 0.00 | 0.21 | 0.21 | 64 | 1020.7 |
| 20260904161905 | 86 | 7 | 4.0 | 4.0 | 0.00 | 0.21 | 0.21 | 67 | 1020.7 |
| 20260904161400 | 87 | 66 | 2.0 | 4.0 | 0.00 | 0.21 | 0.21 | 64 | 1020.6 |
| 20260904160856 | 88 | 15 | 1.0 | 2.0 | 0.00 | 0.21 | 0.21 | 66 | 1020.5 |
| 20260904160350 | 87 | 129 | 0.0 | 2.0 | 0.00 | 0.21 | 0.21 | 68 | 1020.6 |
| 20260904155846 | 88 | 304 | 2.0 | 3.0 | 0.00 | 0.21 | 0.21 | 67 | 1020.8 |
| 20260904155340 | 88 | 73 | 0.0 | 2.0 | 0.00 | 0.21 | 0.21 | 66 | 1020.7 |
| 20260904154838 | 87 | 240 | 2.0 | 3.0 | 0.00 | 0.21 | 0.21 | 68 | 1020.8 |
| 20260904154333 | 87 | 126 | 2.0 | 3.0 | 0.00 | 0.21 | 0.21 | 72 | 1020.8 |
| 20260904153829 | 87 | 335 | 0.0 | 2.0 | 0.00 | 0.21 | 0.21 | 66 | 1020.6 |
| 20260904153324 | 85 | 62 | 3.0 | 11.0 | 0.00 | 0.21 | 0.21 | 68 | 1020.8 |
| 20260904152821 | 85 | 170 | 1.0 | 7.0 | 0.00 | 0.21 | 0.21 | 72 | 1020.6 |
| 20260904152320 | 86 | 284 | 3.0 | 3.0 | 0.00 | 0.21 | 0.21 | 70 | 1020.6 |
| 20260904151815 | 85 | 51 | 1.0 | 3.0 | 0.00 | 0.21 | 0.21 | 69 | 1020.6 |
| 20260904151314 | 84 | 138 | 4.0 | 9.0 | 0.00 | 0.21 | 0.21 | 70 | 1020.5 |
| 20260904150811 | 84 | 343 | 1.0 | 6.0 | 0.00 | 0.21 | 0.21 | 72 | 1020.6 |
| 20260904150306 | 85 | 78 | 7.0 | 9.0 | 0.00 | 0.21 | 0.21 | 69 | 1020.7 |
| 20260904145803 | 84 | 193 | 2.0 | 4.0 | 0.00 | 0.21 | 0.21 | 75 | 1020.8 |
| 20260904145259 | 84 | 73 | 2.0 | 3.0 | 0.00 | 0.21 | 0.21 | 76 | 1020.6 |
| 20260904144755 | 83 | 201 | 0.0 | 6.0 | 0.00 | 0.21 | 0.21 | 73 | 1021.0 |
| 20260904144251 | 84 | 71 | 2.0 | 3.0 | 0.00 | 0.21 | 0.21 | 74 | 1020.8 |
| 20260904143746 | 82 | 14 | 0.0 | 0.0 | 0.00 | 0.21 | 0.21 | 78 | 1020.6 |
| 20260904143243 | 83 | 154 | 1.0 | 2.0 | 0.00 | 0.21 | 0.21 | 74 | 1020.8 |
| 20260904142739 | 83 | 65 | 4.0 | 4.0 | 0.00 | 0.21 | 0.21 | 78 | 1020.7 |
| 20260904142235 | 82 | 88 | 2.0 | 4.0 | 0.00 | 0.21 | 0.21 | 81 | 1020.6 |
| 20260904141734 | 81 | 81 | 2.0 | 3.0 | 0.00 | 0.21 | 0.21 | 84 | 1020.5 |
| 20260904141230 | 82 | 128 | 2.0 | 7.0 | 0.00 | 0.21 | 0.21 | 77 | 1020.7 |
| 20260904140725 | 81 | 47 | 4.0 | 6.0 | 0.00 | 0.21 | 0.21 | 84 | 1020.6 |
| 20260904140220 | 82 | 10 | 0.0 | 1.0 | 0.00 | 0.21 | 0.21 | 84 | 1020.8 |
| 20260904135719 | 82 | 49 | 0.0 | 2.0 | 0.00 | 0.21 | 0.21 | 77 | 1020.8 |
| 20260904135215 | 79 | 79 | 2.0 | 3.0 | 0.00 | 0.21 | 0.21 | 86 | 1020.8 |
| 20260904134710 | 78 | 50 | 1.0 | 2.0 | 0.00 | 0.21 | 0.21 | 90 | 1020.9 |
| 20260904134210 | 78 | 110 | 0.0 | 1.0 | 0.00 | 0.21 | 0.21 | 92 | 1021.1 |
| 20260904133705 | 77 | 321 | 0.0 | 0.0 | 0.00 | 0.21 | 0.21 | 95 | 1021.0 |
| 20260904133201 | 75 | 44 | 0.0 | 2.0 | 0.00 | 0.21 | 0.21 | 96 | 1021.0 |
| 20260904132700 | 75 | 64 | 3.0 | 3.0 | 0.00 | 0.21 | 0.21 | 96 | 1021.0 |
| 20260904132156 | 74 | 18 | 0.0 | 0.0 | 0.00 | 0.21 | 0.21 | 97 | 1021.1 |
| 20260904131654 | 74 | 137 | 0.0 | 0.0 | 0.00 | 0.21 | 0.21 | 96 | 1021.1 |
| 20260904131150 | 74 | 273 | 0.0 | 0.0 | 0.00 | 0.21 | 0.21 | 97 | 1021.1 |
| 20260904130645 | 74 | 78 | 0.0 | 3.0 | 0.00 | 0.21 | 0.21 | 97 | 1021.1 |
| 20260904130145 | 74 | 346 | 0.0 | 4.0 | 0.00 | 0.21 | 0.21 | 98 | 1021.0 |
| 20260904125641 | 73 | 59 | 5.0 | 10.0 | 0.00 | 0.21 | 0.21 | 98 | 1021.0 |
| 20260904125136 | 72 | 160 | 2.0 | 2.0 | 0.00 | 0.21 | 0.21 | 99 | 1021.3 |
| 20260904124631 | 71 | 52 | 5.0 | 7.0 | 0.00 | 0.21 | 0.21 | 99 | 1021.1 |
| 20260904124127 | 70 | 194 | 0.0 | 0.0 | 0.00 | 0.21 | 0.21 | 99 | 1021.4 |
| 20260904123627 | 70 | 13 | 0.0 | 0.0 | 0.00 | 0.21 | 0.21 | 99 | 1021.4 |
| 20260904123123 | 70 | 108 | 0.0 | 0.0 | 0.00 | 0.21 | 0.21 | 99 | 1021.5 |
| 20260904122617 | 69 | 61 | 0.0 | 0.0 | 0.00 | 0.21 | 0.21 | 99 | 1021.3 |
| 20260904122112 | 69 | 239 | 0.0 | 0.0 | 0.00 | 0.21 | 0.21 | 99 | 1021.4 |
| 20260904121608 | 69 | 86 | 4.0 | 6.0 | 0.00 | 0.21 | 0.21 | 99 | 1021.2 |
| 20260904121103 | 69 | 311 | 0.0 | 0.0 | 0.00 | 0.21 | 0.21 | 99 | 1021.2 |
| 20260904120559 | 68 | 115 | 0.0 | 0.0 | 0.00 | 0.21 | 0.21 | 99 | 1021.1 |
| 20260904120055 | 68 | 112 | 0.0 | 0.0 | 0.00 | 0.21 | 0.21 | 99 | 1021.2 |
| 20260904115550 | 68 | 60 | 0.0 | 0.0 | 0.00 | 0.21 | 0.21 | 99 | 1020.9 |
| 20260904115044 | 68 | 66 | 0.0 | 1.0 | 0.00 | 0.21 | 0.21 | 99 | 1021.1 |
| 20260904114539 | 67 | 77 | 0.0 | 0.0 | 0.00 | 0.21 | 0.21 | 99 | 1021.0 |
| 20260904114038 | 67 | 110 | 0.0 | 0.0 | 0.00 | 0.21 | 0.21 | 99 | 1020.7 |
| 20260904113533 | 67 | 278 | 0.0 | 0.0 | 0.00 | 0.21 | 0.21 | 99 | 1021.0 |
| 20260904113033 | 66 | 58 | 0.0 | 0.0 | 0.00 | 0.21 | 0.21 | 99 | 1020.8 |
| 20260904112528 | 67 | 273 | 0.0 | 0.0 | 0.00 | 0.21 | 0.21 | 99 | 1021.0 |
| 20260904112024 | 67 | 138 | 0.0 | 0.0 | 0.00 | 0.21 | 0.21 | 99 | 1021.0 |
| 20260904111519 | 66 | 66 | 0.0 | 0.0 | 0.00 | 0.21 | 0.21 | 99 | 1021.0 |
| 20260904111015 | 66 | 260 | 0.0 | 0.0 | 0.00 | 0.21 | 0.21 | 99 | 1021.0 |
| 20260904110514 | 66 | 165 | 0.0 | 0.0 | 0.00 | 0.21 | 0.21 | 99 | 1021.2 |
| 20260904110011 | 66 | 242 | 0.0 | 0.0 | 0.00 | 0.21 | 0.21 | 99 | 1021.0 |
| 20260904105509 | 66 | 63 | 0.0 | 0.0 | 0.00 | 0.21 | 0.21 | 99 | 1021.0 |
| 20260904105005 | 66 | 115 | 0.0 | 0.0 | 0.00 | 0.21 | 0.21 | 99 | 1021.0 |
| 20260904104500 | 66 | 245 | 0.0 | 0.0 | 0.00 | 0.21 | 0.21 | 99 | 1020.8 |
| 20260904103956 | 66 | 54 | 0.0 | 0.0 | 0.00 | 0.21 | 0.21 | 99 | 1020.7 |
| 20260904103451 | 66 | 81 | 0.0 | 0.0 | 0.00 | 0.21 | 0.21 | 99 | 1020.7 |
| 20260904102948 | 66 | 230 | 0.0 | 0.0 | 0.00 | 0.21 | 0.21 | 99 | 1020.8 |
| 20260904102443 | 67 | 130 | 0.0 | 0.0 | 0.00 | 0.21 | 0.21 | 99 | 1020.7 |
| 20260904101933 | 66 | 115 | 0.0 | 0.0 | 0.00 | 0.21 | 0.21 | 99 | 1020.7 |
| 20260904101429 | 66 | 192 | 0.0 | 0.0 | 0.00 | 0.21 | 0.21 | 99 | 1020.6 |
| 20260904100925 | 67 | 300 | 0.0 | 0.0 | 0.00 | 0.21 | 0.21 | 99 | 1020.6 |
| 20260904100421 | 66 | 179 | 0.0 | 0.0 | 0.00 | 0.21 | 0.21 | 99 | 1020.7 |
| 20260904095920 | 67 | 97 | 0.0 | 0.0 | 0.00 | 0.21 | 0.21 | 99 | 1020.7 |
| 20260904095415 | 67 | 292 | 0.0 | 0.0 | 0.00 | 0.21 | 0.21 | 99 | 1020.6 |
| 20260904094905 | 67 | 9 | 0.0 | 0.0 | 0.00 | 0.21 | 0.21 | 99 | 1020.5 |
| 20260904094400 | 67 | 227 | 0.0 | 1.0 | 0.00 | 0.21 | 0.21 | 99 | 1020.8 |
| 20260904093856 | 67 | 33 | 0.0 | 0.0 | 0.00 | 0.21 | 0.21 | 99 | 1020.4 |
| 20260904093356 | 67 | 25 | 0.0 | 0.0 | 0.00 | 0.21 | 0.21 | 99 | 1020.4 |
| 20260904092851 | 67 | 10 | 0.0 | 0.0 | 0.00 | 0.21 | 0.21 | 99 | 1020.6 |
| 20260904092347 | 67 | 82 | 0.0 | 0.0 | 0.00 | 0.21 | 0.21 | 99 | 1020.5 |
| 20260904091838 | 67 | 54 | 0.0 | 0.0 | 0.00 | 0.21 | 0.21 | 99 | 1020.3 |
| 20260904091333 | 67 | 48 | 0.0 | 2.0 | 0.00 | 0.21 | 0.21 | 99 | 1020.4 |
| 20260904090828 | 67 | 319 | 0.0 | 0.0 | 0.00 | 0.21 | 0.21 | 99 | 1020.1 |
| 20260904090324 | 67 | 56 | 0.0 | 0.0 | 0.00 | 0.21 | 0.21 | 99 | 1019.9 |
| 20260904085818 | 67 | 43 | 0.0 | 0.0 | 0.00 | 0.21 | 0.21 | 99 | 1020.0 |
| 20260904085313 | 67 | 89 | 1.0 | 2.0 | 0.00 | 0.21 | 0.21 | 99 | 1020.1 |
| 20260904084808 | 67 | 5 | 0.0 | 0.0 | 0.00 | 0.21 | 0.21 | 99 | 1020.1 |
| 20260904084304 | 67 | 74 | 0.0 | 0.0 | 0.00 | 0.21 | 0.21 | 99 | 1020.1 |
| 20260904083800 | 67 | 68 | 2.0 | 3.0 | 0.00 | 0.21 | 0.21 | 99 | 1020.3 |
| 20260904083257 | 67 | 68 | 0.0 | 0.0 | 0.00 | 0.21 | 0.21 | 99 | 1020.4 |
| 20260904082756 | 67 | 27 | 0.0 | 0.0 | 0.00 | 0.21 | 0.21 | 99 | 1020.3 |
| 20260904082251 | 67 | 101 | 0.0 | 0.0 | 0.00 | 0.21 | 0.21 | 99 | 1020.6 |
| 20260904081747 | 67 | 105 | 0.0 | 0.0 | 0.00 | 0.21 | 0.21 | 99 | 1020.5 |
| 20260904081242 | 67 | 234 | 0.0 | 0.0 | 0.00 | 0.21 | 0.21 | 99 | 1020.4 |
| 20260904080737 | 67 | 64 | 0.0 | 0.0 | 0.00 | 0.21 | 0.21 | 99 | 1020.5 |
| 20260904080228 | 67 | 300 | 0.0 | 0.0 | 0.00 | 0.21 | 0.21 | 99 | 1020.1 |
| 20260904075725 | 67 | 335 | 0.0 | 1.0 | 0.00 | 0.21 | 0.21 | 99 | 1020.1 |
| 20260904075224 | 67 | 279 | 0.0 | 0.0 | 0.00 | 0.21 | 0.21 | 99 | 1020.5 |
| 20260904074723 | 67 | 20 | 0.0 | 0.0 | 0.00 | 0.21 | 0.21 | 99 | 1020.5 |
| 20260904074218 | 67 | 220 | 0.0 | 0.0 | 0.00 | 0.21 | 0.21 | 99 | 1020.5 |
| 20260904073714 | 68 | 5 | 0.0 | 0.0 | 0.00 | 0.21 | 0.21 | 99 | 1020.6 |
| 20260904073210 | 68 | 1 | 0.0 | 0.0 | 0.00 | 0.21 | 0.21 | 99 | 1020.3 |
| 20260904072705 | 68 | 22 | 0.0 | 0.0 | 0.00 | 0.21 | 0.21 | 99 | 1020.1 |
| 20260904072200 | 68 | 35 | 0.0 | 0.0 | 0.00 | 0.21 | 0.21 | 99 | 1020.1 |
| 20260904071656 | 68 | 329 | 0.0 | 0.0 | 0.00 | 0.21 | 0.21 | 99 | 1020.0 |